This is the latest recevied weather packets stored in our database for station/object TG5ALY-15. If no packets are shown the sender has not sent any weather packets the latest 10 day(s).
| Time | Temp. | Humidity | Pressure | Rain* | Wind** | Luminosity | Snow |
|---|---|---|---|---|---|---|---|
| 1777700620 | 12.78° C | 92% | 1029.9 hPa | 0 mm | - | 0 W/m² | - |
| 1777699415 | 12.78° C | 91% | 1029.9 hPa | 0 mm | - | 0 W/m² | - |
| 1777698215 | 13.33° C | 90% | 1030.4 hPa | 0 mm | - | 0 W/m² | - |
| 1777697013 | 13.89° C | 87% | 1030.4 hPa | 0 mm | - | 0 W/m² | - |
| 1777695812 | 14.44° C | 86% | 1030.4 hPa | 0 mm | - | 0 W/m² | - |
| 1777694606 | 14.44° C | 87% | 1030.4 hPa | 0 mm | - | 0 W/m² | - |
| 1777693406 | 14.44° C | 86% | 1029.5 hPa | 0 mm | - | 0 W/m² | - |
| 1777692206 | 15° C | 84% | 1029.5 hPa | 0 mm | - | 0 W/m² | - |
| 1777691004 | 15° C | 79% | 1028.7 hPa | 0 mm | - | 0 W/m² | - |
| 1777689799 | 15.56° C | 77% | 1028.7 hPa | 0 mm | - | 0 W/m² | - |
| 1777688594 | 15.56° C | 76% | 1028.7 hPa | 0 mm | - | 0 W/m² | - |
| 1777687395 | 15.56° C | 76% | 1028.3 hPa | 0 mm | - | 0 W/m² | - |
| 1777686195 | 15.56° C | 76% | 1028.3 hPa | 0 mm | - | 0 W/m² | - |
| 1777684993 | 16.11° C | 76% | 1027.4 hPa | 0 mm | - | 0 W/m² | - |
| 1777683791 | 16.11° C | 75% | 1027 hPa | 0 mm | - | 0 W/m² | - |
| 1777682590 | 16.67° C | 74% | 1027 hPa | 0 mm | - | 0 W/m² | - |
| 1777681391 | 17.78° C | 70% | 1026.5 hPa | 0 mm | - | 4 W/m² | - |
| 1777680186 | 17.78° C | 67% | 1026.1 hPa | 0 mm | - | 20 W/m² | - |
| 1777678983 | 18.33° C | 67% | 1026.1 hPa | 0 mm | - | 49 W/m² | - |
| 1777677782 | 18.89° C | 64% | 1025.7 hPa | 0 mm | - | 67 W/m² | - |
| 1777676580 | 19.44° C | 62% | 1025.2 hPa | 0 mm | - | 159 W/m² | - |
| 1777675380 | 19.44° C | 62% | 1025.2 hPa | 0 mm | - | 239 W/m² | - |
| 1777674179 | 20° C | 59% | 1024.8 hPa | 0 mm | - | 325 W/m² | - |
| 1777672978 | 20° C | 58% | 1024.8 hPa | 0 mm | - | 401 W/m² | - |
| 1777671779 | 20.56° C | 54% | 1024.8 hPa | 0 mm | - | 473 W/m² | - |
* Rain latest hour (hover to see other rain measurements)
** Current wind speed in m/s (hover to see current wind gust speed)